FW7746 Weather Reports


time (UTC)temp
C
wind
direction
speed
KPH
gust
KPH
rain 1hr
cm
rain 24hr
cm
rain mn
cm
humidity
%
barometer
mb
20260503191603 22 329 1.6 12.9 0.00 0.00 0.00 33 1011.9
20260503191104 22 325 3.2 9.7 0.00 0.00 0.00 33 1012.1
20260503190604 22 25 3.2 12.9 0.00 0.00 0.00 34 1012.0
20260503190104 22 326 4.8 12.9 0.00 0.00 0.00 34 1012.1
20260503185604 22 317 3.2 16.1 0.00 0.00 0.00 34 1012.1
20260503185103 22 310 1.6 4.8 0.00 0.00 0.00 36 1012.3
20260503184104 22 330 3.2 4.8 0.00 0.00 0.00 34 1012.3
20260503183604 22 314 1.6 8.0 0.00 0.00 0.00 34 1012.4
20260503183104 22 327 1.6 9.7 0.00 0.00 0.00 36 1012.5
20260503182104 22 319 1.6 4.8 0.00 0.00 0.00 35 1012.5
20260503180604 21 320 1.6 8.0 0.00 0.00 0.00 37 1012.7
20260503180104 21 321 3.2 16.1 0.00 0.00 0.00 37 1012.7
20260503175604 21 330 1.6 9.7 0.00 0.00 0.00 38 1012.6
20260503174604 21 310 1.6 4.8 0.00 0.00 0.00 38 1012.7
20260503174104 21 325 4.8 9.7 0.00 0.00 0.00 37 1012.7
20260503172104 20 331 1.6 4.8 0.00 0.00 0.00 39 1013.0
20260503171604 20 327 3.2 9.7 0.00 0.00 0.00 39 1013.0
20260503170604 20 315 1.6 4.8 0.00 0.00 0.00 39 1013.0
20260503170104 20 316 0.0 4.8 0.00 0.00 0.00 40 1013.0
20260503160104 17 342 3.2 4.8 0.00 0.00 0.00 45 1013.5
20260503150604 13 198 0.0 0.0 0.00 0.00 0.00 66 1013.7
20260503150104 12 198 0.0 0.0 0.00 0.00 0.00 68 1013.8
20260503140104 7 223 0.0 0.0 0.00 0.00 0.00 81 1013.7
20260503131103 7 242 0.0 0.0 0.00 0.00 0.00 82 1013.3
20260503130604 7 242 0.0 0.0 0.00 0.00 0.00 82 1013.3
20260503130104 7 242 0.0 0.0 0.00 0.00 0.00 82 1013.3
20260503120104 7 287 0.0 0.0 0.00 0.00 0.00 80 1013.4
20260503110604 8 288 0.0 0.0 0.00 0.00 0.00 80 1013.4
20260503110104 8 288 0.0 0.0 0.00 0.00 0.00 79 1013.4
20260503100104 9 288 0.0 0.0 0.00 0.00 0.00 76 1013.0
20260503090104 10 288 0.0 0.0 0.00 0.00 0.00 71 1013.1
20260503081604 11 288 0.0 0.0 0.00 0.00 0.00 69 1013.4
20260503080604 11 288 0.0 0.0 0.00 0.00 0.00 68 1013.2
20260503080104 11 288 0.0 0.0 0.00 0.00 0.00 67 1013.1
20260503072604 12 288 0.0 0.0 0.00 0.00 0.00 66 1012.9
20260503072104 12 288 0.0 0.0 0.00 0.00 0.00 65 1012.8
20260503071604 12 288 0.0 0.0 0.00 0.00 0.00 64 1012.7
20260503071104 12 288 0.0 0.0 0.00 0.00 0.00 65 1012.8
20260503070604 12 288 0.0 0.0 0.00 0.00 0.00 64 1012.8
20260503060104 13 288 0.0 0.0 0.00 0.03 0.00 62 1013.6
20260503054604 13 305 0.0 0.0 0.00 0.03 0.00 60 1013.5
20260503054104 13 305 0.0 0.0 0.00 0.03 0.00 59 1013.4
20260503053104 14 311 0.0 0.0 0.00 0.03 0.00 58 1013.5
20260503052604 14 329 0.0 0.0 0.00 0.03 0.00 56 1013.5
20260503052105 14 329 0.0 0.0 0.00 0.03 0.00 57 1013.5
20260503051604 14 329 0.0 0.0 0.00 0.03 0.00 55 1013.5
20260503050604 15 330 0.0 0.0 0.00 0.03 0.00 55 1013.6
20260503050105 15 330 0.0 0.0 0.00 0.03 0.00 55 1013.6
20260503045604 15 330 0.0 0.0 0.00 0.03 0.00 56 1013.5
20260503045104 15 330 0.0 0.0 0.00 0.03 0.00 54 1013.3
20260503044604 15 330 0.0 0.0 0.00 0.03 0.00 54 1013.2
20260503044104 15 330 0.0 0.0 0.00 0.03 0.00 55 1013.2
20260503043104 15 330 0.0 0.0 0.00 0.03 0.00 53 1013.1
20260503042604 15 330 0.0 0.0 0.00 0.03 0.00 52 1013.1
20260503041104 15 330 0.0 0.0 0.00 0.03 0.00 52 1012.7
20260503040604 15 330 0.0 0.0 0.00 0.03 0.00 51 1012.6
20260503040104 16 330 0.0 0.0 0.00 0.03 0.00 51 1012.5
20260503035604 16 330 0.0 0.0 0.00 0.03 0.00 51 1012.4
20260503035104 16 330 0.0 0.0 0.00 0.03 0.00 51 1012.3
20260503034604 16 330 0.0 0.0 0.00 0.03 0.00 50 1012.2
20260503033604 16 330 0.0 0.0 0.00 0.03 0.00 50 1012.3
20260503033104 16 330 0.0 0.0 0.00 0.03 0.00 50 1012.1
20260503032604 16 330 0.0 0.0 0.00 0.03 0.00 50 1012.1
20260503032105 16 330 0.0 0.0 0.00 0.03 0.00 50 1012.1
20260503031605 16 330 0.0 0.0 0.00 0.03 0.00 50 1011.9
20260503031103 16 330 0.0 1.6 0.00 0.03 0.00 50 1011.9
20260503030604 16 331 0.0 1.6 0.00 0.03 0.00 50 1011.8
20260503030105 16 331 0.0 3.2 0.00 0.03 0.00 49 1011.8
20260503025604 16 333 0.0 1.6 0.00 0.03 0.00 49 1011.8
20260503025104 16 336 0.0 3.2 0.00 0.03 0.00 49 1011.7
20260503024604 17 321 0.0 1.6 0.00 0.03 0.00 49 1011.7
20260503024104 17 321 1.6 4.8 0.00 0.03 0.00 48 1011.7
20260503023604 17 329 1.6 9.7 0.00 0.03 0.00 48 1011.6
20260503023104 17 319 3.2 16.1 0.00 0.03 0.00 47 1011.5
20260503022604 17 319 1.6 8.0 0.00 0.03 0.00 46 1011.5
20260503021604 17 326 6.4 22.5 0.00 0.03 0.00 45 1011.3
20260503021104 18 338 3.2 20.9 0.00 0.03 0.00 44 1011.2
20260503020605 18 325 1.6 8.0 0.00 0.03 0.00 43 1011.1
20260503020104 18 309 1.6 14.5 0.00 0.03 0.00 42 1010.9
20260503015605 18 327 3.2 16.1 0.00 0.03 0.00 42 1010.8
20260503015104 18 323 3.2 9.7 0.00 0.03 0.00 42 1010.7
20260503014604 18 327 4.8 12.9 0.00 0.03 0.00 42 1010.7
20260503014104 18 329 3.2 4.8 0.00 0.03 0.00 42 1010.6
20260503013604 18 331 3.2 8.0 0.00 0.03 0.00 42 1010.7
20260503013104 18 299 1.6 4.8 0.00 0.03 0.00 43 1010.6
20260503012604 18 321 1.6 4.8 0.00 0.03 0.00 43 1010.5
20260503012104 18 314 1.6 4.8 0.00 0.03 0.00 42 1010.5
20260503011604 18 296 0.0 4.8 0.00 0.03 0.00 42 1010.5
20260503010104 19 289 1.6 8.0 0.00 0.03 0.00 42 1010.4
20260503005604 19 321 3.2 8.0 0.00 0.03 0.00 42 1010.5
20260503004104 18 315 1.6 9.7 0.00 0.03 0.00 44 1010.5
20260503003604 18 324 3.2 16.1 0.00 0.03 0.00 44 1010.3
20260503003104 17 323 3.2 9.7 0.00 0.03 0.00 44 1010.4
20260503002604 17 327 3.2 8.0 0.00 0.03 0.00 45 1010.7
20260503002105 17 271 0.0 4.8 0.00 0.03 0.00 47 1010.5
20260503001104 17 347 1.6 4.8 0.00 0.03 0.00 47 1010.4
20260503000604 17 252 0.0 0.0 0.00 0.03 0.00 47 1010.4
20260503000105 17 253 0.0 3.2 0.00 0.03 0.00 46 1010.4
20260502235604 17 299 0.0 1.6 0.00 0.03 0.00 46 1010.4
20260502235105 17 299 0.0 4.8 0.00 0.03 0.00 46 1010.3
20260502234604 17 288 0.0 1.6 0.00 0.03 0.00 46 1010.4
20260502234104 17 324 0.0 4.8 0.00 0.03 0.00 46 1010.4
20260502233604 17 200 1.6 4.8 0.00 0.03 0.00 45 1010.4
20260502233104 17 158 0.0 0.0 0.00 0.03 0.00 40 1010.6
20260502232604 17 158 0.0 4.8 0.00 0.03 0.00 45 1011.1
20260502231604 17 208 1.6 12.9 0.00 0.03 0.00 44 1011.6
20260502230604 18 150 1.6 12.9 0.00 0.03 0.00 41 1011.8
20260502225604 20 131 1.6 4.8 0.00 0.03 0.00 35 1011.5
20260502224604 20 334 0.0 0.0 0.00 0.03 0.00 36 1010.7
20260502223604 20 329 0.0 4.8 0.00 0.03 0.00 36 1010.3
20260502223104 21 319 1.6 4.8 0.00 0.03 0.00 35 1010.1
20260502222604 21 311 3.2 14.5 0.00 0.03 0.00 35 1009.9
20260502222104 21 333 4.8 9.7 0.00 0.03 0.00 35 1009.9
20260502221604 21 334 1.6 8.0 0.00 0.03 0.00 35 1009.9
20260502221104 21 321 1.6 8.0 0.00 0.03 0.00 35 1010.1
20260502220604 21 320 1.6 12.9 0.00 0.03 0.00 35 1010.0
20260502220105 21 323 1.6 4.8 0.00 0.03 0.00 34 1010.1
20260502215105 21 321 1.6 8.0 0.00 0.03 0.00 33 1010.1
20260502214604 21 324 1.6 8.0 0.00 0.03 0.00 34 1010.2
20260502214104 21 324 3.2 8.0 0.00 0.03 0.00 33 1010.2
20260502213604 21 330 3.2 12.9 0.00 0.03 0.00 33 1010.2
20260502213104 21 287 1.6 4.8 0.00 0.03 0.00 34 1010.2
20260502211604 21 245 1.6 4.8 0.00 0.03 0.00 35 1010.4
20260502211104 21 317 3.2 9.7 0.00 0.03 0.00 34 1010.4
20260502210604 21 335 1.6 4.8 0.00 0.03 0.00 35 1010.3
20260502210104 20 330 1.6 14.5 0.00 0.03 0.00 34 1010.4
20260502204604 20 315 3.2 9.7 0.00 0.03 0.00 34 1010.2
20260502204104 20 329 4.8 9.7 0.00 0.03 0.00 33 1010.3
20260502203605 20 322 4.8 9.7 0.00 0.03 0.00 34 1010.4
20260502203104 20 326 0.0 4.8 0.00 0.03 0.00 34 1010.6
20260502202104 20 321 0.0 4.8 0.00 0.03 0.00 34 1010.8
20260502201604 20 322 1.6 9.7 0.00 0.03 0.00 34 1010.8
20260502201104 21 340 3.2 12.9 0.00 0.03 0.00 34 1010.8
20260502200604 21 315 3.2 8.0 0.00 0.03 0.00 34 1010.8
20260502195606 21 330 0.0 8.0 0.00 0.03 0.00 35 1010.9
20260502195104 21 323 4.8 12.9 0.00 0.03 0.00 36 1010.9
20260502194604 21 322 0.0 11.3 0.00 0.03 0.00 38 1010.9
20260502194105 21 329 3.2 9.7 0.00 0.03 0.00 39 1010.9
20260502193604 20 325 4.8 9.7 0.00 0.03 0.00 39 1010.9
20260502193104 20 312 1.6 9.7 0.00 0.03 0.00 38 1011.2
20260502192604 20 324 4.8 14.5 0.00 0.03 0.00 38 1011.2
20260502192105 20 320 1.6 8.0 0.00 0.03 0.00 40 1011.4